Location: Perryvale
(54.4667°N, 113.3833°W)
Time: 19:31:48
(UTC+00:00)

Vanguard 1 Rocket - Pass Details

Date: 25 May 2024
Orbit: 649 x 4220 km, 34.3° (Epoch: 19 June)

Event Time Altitude Azimuth Distance (km) Brightness Sun altitude
Rises 14:56:00 0° 212° (SSW) 8,432 12.1 29.4°
Reaches altitude 10° 15:03:46 10° 202° (SSW) 7,198 11.9 30.5°
Maximum altitude 15:20:04 25° 158° (SSE) 4,974 11.8 32.8°
Drops below altitude 10° 15:31:28 10° 110° (ESE) 4,993 12.6 34.5°
Sets 15:35:28 0° 98° (E) 5,508 12.4 35.0°
